Location: Carnières
(50.1682°N, 3.3474°E)
Time: 05:51:58
(UTC+00:00)

SL-16 R/B - Pass Details

Date: 06 August 2024
Orbit: 842 x 845 km, 71.0° (Epoch: 16 September)

Event Time Altitude Azimuth Distance (km) Brightness Sun altitude
Exits shadow 01:54:14 25° 245° (WSW) 1,639 3.2 -18.1°
Maximum altitude 01:57:16 49° 307° (NW) 1,086 2.8 -17.8°
Drops below altitude 10° 02:02:46 10° 22° (NNE) 2,476 5.9 -17.3°
Sets 02:05:19 0° 28° (NNE) 3,415 7.1 -17.1°
